SAUDICOMSAT 6

Last updated on Wed Sep 09 2026 00:03:17 GMT+0000 (Coordinated Universal Time)

1 31121U 07012E 26251.14287077 .00000413 00000+0 88395-4 0 9994 2 31121 98.4200 220.2447 0072903 68.9062 291.9913 14.62624845 32311
UTC large
Height (km)
Speed (km/s)
/
Latitude / Longitude
Inclination (degrees)
Orbital Period (minutes)
Azimuth
Elevation
Range (km)
Doppler Factor

Next 0 passes for location: London (51.5072 / 0.1276)

No passes found over London.
SAUDICOMSAT 6